国际通讯卫星 4-F3星 (INTELSAT 4-F3)

导读 | 豆包AI

INTELSAT 4-F3是国际通信卫星组织(ITSO)发射的第四代国际通信卫星,于1971年12月20日发射入轨。作为国际通信卫星4系列的一员,该卫星由休斯空间与通信公司建造,基于HS-312平台设计,配置了12路C频段转发器,设计寿命为7年,发射质量约1414千克。 它主要服务于全球公共电信业务,为跨洋国际通信提供支持,推动了全球范围内电话、电报、传真等通信业务的互联互通,是20世纪70年代全球卫星通信网络建设的重要组成部分,体现了国际合作发展空间通信的早期成果。

基本信息
目录编号:
5709
目录名称:
INTELSAT 4-F3
国际标识:
1971-116A
轨道中心:
EARTH
卫星名称:
国际通讯卫星 4-F3星
卫星全名:
国际通讯卫星 4-F3星 (INTELSAT 4-F3)
卫星状态:
在轨 (已飞行19856 天)
发射日期:
1971-12-20 UTC
国别 :
(ITSO)
星等 :
--
轨道信息
数据来源 国际轨道数据 AOE轨道数据
星历时间 2026-04-30T22:32:41+0800
15小时前
查看轨道信息
2026-04-28T12:00:00+0800
3天前
查看轨道信息
半长轴 42349.127km 42349.184km
偏心率 0.0011404 0.0011492
轨道倾角 6.511° 6.517°
近地点辐角 116.317° 116.346°
升交点赤经 291.293° 291.312°
平近点角 270.971° 116.093°
近地点 35922.695km 35922.379km
远地点 36019.285km 36019.715km
周期 1445.528分钟 1445.531分钟
每日圈数 0.996176 0.996174
详细信息
卫星平台:
HS-353
平衡模式:
自旋稳定
覆盖范围:
全球
运营商:
国际卫星通信公司
运营商所在国:
美国
制造商(研发单位):
休斯公司
制造商所在国:
美国
使用方式:
暂无
卫星简介
从1965年4月至1984年3月,国际通信卫星组织发射了5代、6种不同性能的卫星共计35颗,除6颗卫星因运载火箭和远地点发动机故障而发射失败外,其余29颗卫星均被送到了预定的静止轨道位置。1984年8月前后,国际通信卫星组织利用部署在大西洋、太平洋、印度洋上空的15颗国际通信卫星,为遍布世界各地170多个国家或地区提供电话、电传、电报、电视和数据传输等电信业务;该卫星已退役。
2D轨道图
3D轨道图
轨道高度分析图
轨道倾角分析图
轨道综合分析图
查看轨道综合分析图